Regional Weather Roundup
Issued by NWS

Home | Current Version | Previous Version | Graphics & Text | Print | Product List | Glossary On
Versions: 1 2 3 4 5 6 7 8 9 10 11 12 13 14 15 16 17 18 19 20 21 22 23 24 25 26 27 28 29 30 31 32 33 34 35 36 37 38 39 40 41 42 43 44 45 46 47 48 49 50
000
ASUS43 KLSX 251557
RWRMO

WEATHER SUMMARY FOR MISSOURI
NATIONAL WEATHER SERVICE SPRINGFIELD MO
1100 AM CDT WED APR 25 2018

NOTE: "FAIR" INDICATES FEW OR NO CLOUDS BELOW 12,000 FEET WITH NO
       SIGNIFICANT WEATHER AND/OR OBSTRUCTIONS TO VISIBILITY.
       CURRENT SKY AND/OR WEATHER CONDITIONS ARE NOT AVAILABLE FOR
       CHILLICOTHE AND FARMINGTON.

MOZ001>031-035>038-043-044-053-054-251700-
...NORTHERN AND WESTERN MISSOURI...

CITY           SKY/WX    TMP DP  RH WIND       PRES   REMARKS
KANSAS CTY INT LGT RAIN  49  47  93 N10       30.16S
LEE`S SUMMIT   LGT RAIN  51  48  89 N12       30.15S
ST JOSEPH      LGT RAIN  48  47  96 N15       30.19F FOG
CHILLICOTHE      N/A     51  45  79 N6        30.18R

$$
MOZ066>068-077>081-088>096-101>105-251700-
...SOUTHWEST MISSOURI...

CITY           SKY/WX    TMP DP  RH WIND       PRES   REMARKS
SPRINGFIELD    LGT RAIN  53  50  89 NW5       30.14S FOG
JOPLIN         CLOUDY    54  52  93 E6        30.13F
BRANSON        RAIN      52  52 100 W5        30.17R FOG

$$
MOZ032>034-039>042-045>050-055>058-069>072-251700-
...CENTRAL MISSOURI...

CITY           SKY/WX    TMP DP  RH WIND       PRES   REMARKS
COLUMBIA       NOT AVBL
JEFFERSON CITY CLOUDY    59  40  49 NW5       30.11R
ROLLA          CLOUDY    58  44  60 NW7       30.09R
SEDALIA        LGT RAIN  55  47  74 NW9       30.14S
WARRENSBURG    DRIZZLE   52  45  76 N6        30.15S

$$
MOZ051-052-059>065-251700-
...EAST CENTRAL MISSOURI...

CITY           SKY/WX    TMP DP  RH WIND       PRES   REMARKS
ST LOUIS INTL  CLOUDY    62  48  60 N9        30.05F

$$
MOZ072>076-082>087-097>100-106>115-251700-
...SOUTH CENTRAL AND SOUTHEAST MISSOURI...

CITY           SKY/WX    TMP DP  RH WIND       PRES   REMARKS
CAPE GIRARDEAU FAIR      67  51  56 E5        30.02S
POPLAR BLUFF   FAIR      70  45  40 CALM      30.03R
WEST PLAINS    CLOUDY    60  45  57 NW6       30.08R

$$




USA.gov is the U.S. government's official web portal to all federal, state and local government web resources and services.